Location: Peebles
(55.6412°N, 3.1714°W)
Time: 18:09:55
(UTC+01:00)

Envisat - Pass Details

Date: 03 March 2024
Orbit: 762 x 764 km, 98.3° (Epoch: 20 April)

Event Time Altitude Azimuth Distance (km) Brightness Sun altitude
Rises 02:23:38 0° 24° (NNE) 3,245 7.2 -35.6°
Reaches altitude 10° 02:26:40 10° 43° (NE) 2,313 6.3 -35.4°
Maximum altitude 02:30:11 19° 87° (E) 1,787 5.2 -35.1°
Enters shadow 02:30:45 18° 95° (E) 1,802 5.2 -35.0°
